When you browse on this site, cookies collect data to enhance your experience and personalize the content and advertising you see.
Visit our Privacy Policy to learn more. By continuing to use the site, you agree to this use of cookies and data.
  • In Österreich
  • Länderverzeichnis
  • Für 7 Tage
  • Wassertemperatur
  • Satellitenkarten
  • Wetterkarte
  • News
  • Widgets
  • user-avatar
    Anmelden

    Stündliche Wetter Seneckoe

    Heute, 20 Februar, Mittwoch

    Zeit Temperatur Niederschläge Wind Luftdruck Luftfeuchtigkeit
    00:00 0°C° 0.1 mm 4 m/S 741 mmHg 91%
    01:00 0°C° 0.1 mm 4 m/S 741 mmHg 91%
    02:00 +1°C° 0 mm 5 m/S 740 mmHg 91%
    03:00 +1°C° 0.1 mm 4 m/S 740 mmHg 91%
    04:00 +1°C° 0.1 mm 4 m/S 740 mmHg 91%
    05:00 +1°C° 0.1 mm 4 m/S 740 mmHg 91%
    06:00 +1°C° 0.1 mm 4 m/S 739 mmHg 90%
    07:00 0°C° 0.1 mm 4 m/S 739 mmHg 90%
    08:00 0°C° 0.1 mm 5 m/S 739 mmHg 89%
    09:00 +1°C° 0.1 mm 5 m/S 739 mmHg 88%
    10:00 +1°C° 0.1 mm 5 m/S 739 mmHg 87%
    11:00 +1°C° 0.1 mm 5 m/S 738 mmHg 85%
    12:00 +1°C° 0.3 mm 5 m/S 738 mmHg 85%
    13:00 +1°C° 0.3 mm 5 m/S 738 mmHg 84%
    14:00 +2°C° 0.3 mm 5 m/S 737 mmHg 84%
    15:00 +1°C° 0.5 mm 5 m/S 737 mmHg 84%
    16:00 +1°C° 0.5 mm 5 m/S 737 mmHg 85%
    17:00 +1°C° 0.5 mm 5 m/S 737 mmHg 86%
    18:00 0°C° 0.3 mm 5 m/S 737 mmHg 82%
    19:00 -2°C° 0.3 mm 5 m/S 738 mmHg 79%
    20:00 -4°C° 0.3 mm 5 m/S 738 mmHg 76%
    21:00 -4°C° 0.2 mm 6 m/S 739 mmHg 75%
    22:00 -5°C° 0.2 mm 6 m/S 740 mmHg 74%
    23:00 -6°C° 0.2 mm 6 m/S 740 mmHg 74%

    Morgen, 21 Februar, Donnerstag

    Zeit Temperatur Niederschläge Wind Luftdruck Luftfeuchtigkeit
    00:00 -6°C° 0.1 mm 6 m/S 741 mmHg 74%
    01:00 -6°C° 0.1 mm 6 m/S 741 mmHg 75%
    02:00 -8°C° 0.1 mm 7 m/S 742 mmHg 75%
    03:00 -8°C° 0.1 mm 7 m/S 742 mmHg 75%
    04:00 -8°C° 0.1 mm 7 m/S 743 mmHg 75%
    05:00 -8°C° 0.1 mm 7 m/S 743 mmHg 74%
    06:00 -8°C° 0.2 mm 7 m/S 744 mmHg 75%
    07:00 -8°C° 0.2 mm 7 m/S 744 mmHg 75%
    08:00 -9°C° 0.2 mm 7 m/S 745 mmHg 75%
    09:00 -8°C° 0.1 mm 7 m/S 746 mmHg 73%
    10:00 -8°C° 0.1 mm 7 m/S 747 mmHg 70%
    11:00 -8°C° 0.1 mm 7 m/S 748 mmHg 68%
    12:00 -8°C° 0 mm 6 m/S 749 mmHg 67%
    13:00 -8°C° 0 mm 6 m/S 749 mmHg 66%
    14:00 -8°C° 0 mm 6 m/S 750 mmHg 64%
    15:00 -9°C° 0 mm 6 m/S 751 mmHg 65%
    16:00 -9°C° 0 mm 6 m/S 752 mmHg 66%
    17:00 -10°C° 0 mm 5 m/S 752 mmHg 66%
    18:00 -10°C° 0 mm 5 m/S 753 mmHg 66%
    19:00 -11°C° 0 mm 5 m/S 754 mmHg 67%
    20:00 -11°C° 0 mm 5 m/S 755 mmHg 67%
    21:00 -11°C° 0 mm 5 m/S 755 mmHg 68%
    22:00 -12°C° 0 mm 5 m/S 756 mmHg 68%
    23:00 -11°C° 0 mm 4 m/S 756 mmHg 68%

    übermorgen, 22 Februar, Freitag

    Zeit Temperatur Niederschläge Wind Luftdruck Luftfeuchtigkeit
    00:00 -11°C° 0 mm 4 m/S 757 mmHg 69%
    01:00 -12°C° 0 mm 4 m/S 757 mmHg 70%
    02:00 -12°C° 0 mm 4 m/S 758 mmHg 71%
    03:00 -12°C° 0 mm 4 m/S 758 mmHg 71%
    04:00 -12°C° 0 mm 4 m/S 759 mmHg 72%
    05:00 -12°C° 0 mm 4 m/S 759 mmHg 72%
    06:00 -13°C° 0 mm 5 m/S 760 mmHg 72%
    07:00 -13°C° 0 mm 5 m/S 760 mmHg 72%
    08:00 -13°C° 0 mm 5 m/S 761 mmHg 72%
    09:00 -12°C° 0 mm 5 m/S 761 mmHg 70%
    10:00 -12°C° 0 mm 6 m/S 761 mmHg 67%
    11:00 -11°C° 0 mm 6 m/S 761 mmHg 65%
    12:00 -10°C° 0 mm 6 m/S 762 mmHg 61%
    13:00 -10°C° 0 mm 6 m/S 762 mmHg 58%
    14:00 -9°C° 0 mm 7 m/S 762 mmHg 55%
    15:00 -10°C° 0 mm 6 m/S 762 mmHg 59%
    16:00 -10°C° 0 mm 6 m/S 763 mmHg 63%
    17:00 -10°C° 0 mm 6 m/S 763 mmHg 67%
    18:00 -10°C° 0.1 mm 6 m/S 764 mmHg 68%
    19:00 -11°C° 0.1 mm 6 m/S 764 mmHg 69%
    20:00 -11°C° 0.1 mm 6 m/S 765 mmHg 70%
    21:00 -11°C° 0 mm 5 m/S 765 mmHg 71%
    22:00 -12°C° 0 mm 5 m/S 766 mmHg 72%
    23:00 -11°C° 0 mm 4 m/S 766 mmHg 73%

    23 Februar, Samstag

    Zeit Temperatur Niederschläge Wind Luftdruck Luftfeuchtigkeit
    00:00 -12°C° 0 mm 4 m/S 766 mmHg 75%
    01:00 -12°C° 0 mm 4 m/S 767 mmHg 78%
    02:00 -14°C° 0 mm 4 m/S 767 mmHg 80%
    03:00 -13°C° 0 mm 3 m/S 767 mmHg 81%
    04:00 -13°C° 0 mm 3 m/S 767 mmHg 83%
    05:00 -13°C° 0 mm 3 m/S 767 mmHg 84%
    06:00 -13°C° 0 mm 3 m/S 768 mmHg 84%
    07:00 -14°C° 0 mm 3 m/S 768 mmHg 85%
    08:00 -14°C° 0 mm 3 m/S 768 mmHg 85%
    09:00 -12°C° 0 mm 2 m/S 768 mmHg 79%
    10:00 -9°C° 0 mm 2 m/S 768 mmHg 73%
    11:00 -8°C° 0 mm 2 m/S 768 mmHg 67%
    12:00 -8°C° 0 mm 2 m/S 768 mmHg 65%
    13:00 -7°C° 0 mm 2 m/S 767 mmHg 63%
    14:00 -7°C° 0 mm 2 m/S 767 mmHg 61%
    15:00 -7°C° 0 mm 2 m/S 767 mmHg 63%
    16:00 -7°C° 0 mm 2 m/S 766 mmHg 65%
    17:00 -7°C° 0 mm 2 m/S 766 mmHg 67%
    18:00 -7°C° 0 mm 2 m/S 766 mmHg 70%
    19:00 -7°C° 0 mm 2 m/S 765 mmHg 73%
    20:00 -7°C° 0 mm 2 m/S 765 mmHg 75%
    21:00 -7°C° 0.1 mm 2 m/S 765 mmHg 79%
    22:00 -6°C° 0.1 mm 2 m/S 764 mmHg 84%
    23:00 -7°C° 0.1 mm 3 m/S 764 mmHg 88%

    24 Februar, Sonntag

    Zeit Temperatur Niederschläge Wind Luftdruck Luftfeuchtigkeit
    00:00 -7°C° 0.1 mm 3 m/S 763 mmHg 89%
    01:00 -6°C° 0.1 mm 2 m/S 763 mmHg 90%
    02:00 -6°C° 0.1 mm 2 m/S 763 mmHg 90%
    03:00 -5°C° 0.1 mm 2 m/S 763 mmHg 92%
    04:00 -5°C° 0.1 mm 2 m/S 763 mmHg 93%
    05:00 -3°C° 0.1 mm 1 m/S 762 mmHg 94%
    06:00 -3°C° 0 mm 1 m/S 762 mmHg 94%
    07:00 -2°C° 0 mm 1 m/S 763 mmHg 95%
    08:00 -2°C° 0 mm 1 m/S 763 mmHg 96%
    09:00 -1°C° 0 mm 1 m/S 763 mmHg 94%
    10:00 0°C° 0 mm 1 m/S 763 mmHg 92%
    11:00 +1°C° 0 mm 1 m/S 764 mmHg 90%
    12:00 0°C° 0 mm 0 m/S 763 mmHg 89%
    13:00 +1°C° 0 mm 0 m/S 763 mmHg 89%
    14:00 +1°C° 0 mm 0 m/S 763 mmHg 88%
    15:00 +1°C° 0 mm 0 m/S 763 mmHg 90%
    16:00 +1°C° 0 mm 1 m/S 763 mmHg 92%
    17:00 +1°C° 0 mm 1 m/S 763 mmHg 94%
    18:00 +1°C° 0 mm 1 m/S 763 mmHg 94%
    19:00 +1°C° 0 mm 1 m/S 763 mmHg 95%
    20:00 0°C° 0 mm 1 m/S 763 mmHg 95%
    21:00 +1°C° 0 mm 1 m/S 763 mmHg 94%
    22:00 -1°C° 0 mm 2 m/S 763 mmHg 92%
    23:00 -1°C° 0 mm 2 m/S 763 mmHg 91%

    25 Februar, Montag

    Zeit Temperatur Niederschläge Wind Luftdruck Luftfeuchtigkeit
    00:00 -2°C° 0 mm 2 m/S 762 mmHg 91%
    01:00 -2°C° 0 mm 2 m/S 762 mmHg 91%
    02:00 -2°C° 0 mm 2 m/S 762 mmHg 90%
    03:00 -2°C° 0 mm 2 m/S 761 mmHg 91%
    04:00 -2°C° 0 mm 3 m/S 760 mmHg 92%
    05:00 -2°C° 0 mm 3 m/S 760 mmHg 92%
    06:00 -1°C° 0 mm 3 m/S 760 mmHg 93%
    07:00 -1°C° 0 mm 3 m/S 759 mmHg 94%
    08:00 0°C° 0 mm 3 m/S 759 mmHg 95%
    09:00 0°C° 0 mm 3 m/S 759 mmHg 92%
    10:00 0°C° 0 mm 3 m/S 759 mmHg 90%
    11:00 0°C° 0 mm 4 m/S 758 mmHg 87%
    12:00 0°C° 0 mm 4 m/S 758 mmHg 86%
    13:00 0°C° 0 mm 4 m/S 758 mmHg 84%
    14:00 0°C° 0 mm 4 m/S 758 mmHg 83%
    15:00 -1°C° 0.1 mm 4 m/S 758 mmHg 82%
    16:00 0°C° 0.1 mm 3 m/S 758 mmHg 82%
    17:00 0°C° 0.1 mm 3 m/S 758 mmHg 82%
    18:00 0°C° 0 mm 3 m/S 758 mmHg 83%
    19:00 -1°C° 0 mm 3 m/S 758 mmHg 84%
    20:00 -1°C° 0 mm 3 m/S 758 mmHg 85%
    21:00 -1°C° 0 mm 3 m/S 758 mmHg 86%
    22:00 -1°C° 0 mm 3 m/S 758 mmHg 87%
    23:00 -2°C° 0 mm 3 m/S 757 mmHg 88%
    Mehr zeigen